Weather History for Tijuana, Mexico

Change the Weather History Date:

Sunday, March 24, 2013

  Actual Average Record
Temperature  
Mean Temperature 58 °F -  
Max Temperature 68 °F 66 °F 82 °F (2008)
Min Temperature 48 °F 50 °F 46 °F (2009)
Degree Days  
Heating Degree Days 7    
Growing Degree Days 8 (Base 50)    
Moisture  
Dew Point 49 °F    
Average Humidity 78    
Maximum Humidity 94    
Minimum Humidity 52    
Precipitation  
Precipitation 0.00 in - - ()
Sea Level Pressure  
Sea Level Pressure 30.00 in    
Wind  
Wind Speed 3 mph ()    
Max Wind Speed 13 mph    
Max Gust Speed -    
Visibility 4.3 miles    
Events Fog    
Averages and records for this station are not official NWS values.
T = Trace of Precipitation, MM = Missing Value Source: Averaged Metar Reports

Daily Weather History Graph

Daily Weather History Graph

Search for Another Location

Airport:

Trip Planner

Search our weather history database for the weather conditions in past years. The results will help you decide how hot, cold, wet, or windy it might be!

Date:

Astronomy

Mar. 24, 2013 Rise Set
Actual Time 6:45 AM PDT 7:02 PM PDT
Civil Twilight 6:21 AM PDT 7:27 PM PDT
Nautical Twilight 5:52 AM PDT 7:55 PM PDT
Astronomical Twilight 5:23 AM PDT 8:25 PM PDT
Moon 4:41 PM PDT (3/24) 4:50 AM PDT (3/24)
Length of Visible Light 13h 05m
Length of Day
12h 16m
Waxing Gibbous, 92% of the Moon is Illuminated
Mar 24
Waxing Gibbous
Mar 27
Full
Apr 2
Last Quarter
Apr 10
New
Apr 18
First Quarter

Hourly Weather History & Observations

Time (PDT) Temp. Dew Point Humidity Pressure Visibility Wind Dir Wind Speed Gust Speed Precip Events Conditions
12:45 AM 55.4 °F 50.0 °F 82% 30.04 in 5.0 mi NNW 3.5 mph - N/A   Mostly Cloudy
1:34 AM 55.4 °F 50.0 °F 82% 30.03 in 4.0 mi Calm Calm - N/A   Overcast
1:40 AM 53.6 °F 50.0 °F 88% 30.08 in 4.0 mi Calm Calm - N/A   Overcast
2:40 AM 53.6 °F 50.0 °F 88% 30.02 in 4.0 mi Calm Calm - N/A   Overcast
3:41 AM 53.6 °F 50.0 °F 88% 30.01 in 4.0 mi Calm Calm - N/A   Overcast
4:44 AM 51.8 °F 48.2 °F 88% 30.04 in 5.0 mi Calm Calm - N/A   Partly Cloudy
5:29 AM 50.0 °F 46.4 °F 87% 30.00 in 0.1 mi Calm Calm - N/A Fog Fog
5:40 AM 48.2 °F 46.4 °F 93% 30.00 in 0.1 mi Calm Calm - N/A Fog Fog
6:00 AM 48.2 °F 46.4 °F 93% 30.00 in 2.0 mi Calm Calm - N/A   Overcast
6:09 AM 48.2 °F 46.4 °F 93% 30.00 in 4.0 mi Calm Calm - N/A   Scattered Clouds
6:47 AM 48.2 °F 46.4 °F 93% 30.00 in 4.0 mi Calm Calm - N/A   Partly Cloudy
7:42 AM 50.0 °F 48.2 °F 94% 30.04 in 5.0 mi Calm Calm - N/A   Clear
8:40 AM 57.2 °F 46.4 °F 67% 30.02 in 5.0 mi Calm Calm - N/A   Clear
9:41 AM 60.8 °F 46.4 °F 59% 30.02 in 5.0 mi NNW 4.6 mph - N/A   Clear
10:41 AM 64.4 °F 48.2 °F 56% 30.04 in 5.0 mi NW 8.1 mph - N/A   Clear
11:41 AM 66.2 °F 50.0 °F 56% 30.01 in 5.0 mi WNW 3.5 mph - N/A   Clear
12:42 PM 64.4 °F 50.0 °F 59% 30.00 in 5.0 mi West 12.7 mph - N/A   Clear
1:41 PM 66.2 °F 51.8 °F 60% 30.00 in 5.0 mi West 9.2 mph - N/A   Clear
2:47 PM 68.0 °F 50.0 °F 52% 29.95 in 5.0 mi West 10.4 mph - N/A   Clear
3:44 PM 68.0 °F 50.0 °F 52% 29.93 in 5.0 mi WNW 11.5 mph - N/A   Clear
4:44 PM 64.4 °F 50.0 °F 59% 29.98 in 5.0 mi WNW 11.5 mph - N/A   Clear
5:45 PM 60.8 °F 51.8 °F 72% 29.94 in 6.0 mi WNW 12.7 mph - N/A   Clear
6:50 PM 57.2 °F 51.8 °F 82% 29.95 in 5.0 mi WNW 8.1 mph - N/A   Clear
7:47 PM 55.4 °F 51.8 °F 88% 29.99 in 5.0 mi West 5.8 mph - N/A   Clear
8:45 PM 55.4 °F 51.8 °F 88% 29.96 in 5.0 mi Calm Calm - N/A   Clear
9:43 PM 53.6 °F 50.0 °F 88% 29.98 in 4.0 mi West 3.5 mph - N/A   Clear
10:47 PM 53.6 °F 51.8 °F 94% 30.00 in 4.0 mi Calm Calm - N/A   Partly Cloudy
11:46 PM 53.6 °F 51.8 °F 94% 29.97 in 4.0 mi Calm Calm - N/A   Partly Cloudy